STARLINK-35301

Last updated on Mon Oct 20 2025 00:02:07 GMT+0000 (Coordinated Universal Time)

1 65843U 25221W 25292.25002315 -.01551527 00000+0 -28498-1 0 9995 2 65843 53.1602 27.7798 0000980 85.8406 275.4721 15.51579848 4435
UTC large
Height (km)
Speed (km/s)
/
Latitude / Longitude
Inclination (degrees)
Orbital Period (minutes)
Azimuth
Elevation
Range (km)
Doppler Factor

Next 0 passes for location: London (51.5072 / 0.1276)

Sorry there are no passes over London.